User: anonymous   Login
Location: Contre
(49.7477°N, 2.0963°E)
Time: 08:35:54
(UTC+00:00)
Language:

Cosmos 1825 - Orbit

View from above orbital plane
View from above orbital plane
View from above satellite
View from above satellite

Ground track
Ground track

The orbit data is extracted from the following two-line orbital elements,

1 17566U 87024A   24114.01200852  .00032794  00000-0  84631-3 0  9996
2 17566  82.4954 315.2739 0003795  90.7596 269.4084 15.38995962 34488
Epoch (UTC): 23 April 2024 00:17:17
Eccentricity: 0.0003795
inclination: 82.4954°
perigee height: 446 km
apogee height: 451 km
right ascension of ascending node: 315.2739°
argument of perigee: 90.7596°
revolutions per day: 15.38995962
mean anomaly at epoch: 269.4084°
orbit number at epoch: 3448

The dashed part of the orbit path shows where the satellite is in the earth's shadow,  

DLR